Flag for Russia Weather past 2 weeks in Yakutsk, Russia

Now
-4 °F

Clear.


Feels Like: -12 °F
Forecast: -13 / 8 °F
Wind: 3 mph from Northwest

Location: Jakutsk

Current Time: Mar 29, 2015 at 1:17:00 AM

Latest Report: Mar 29, 2015 at 12:30 AM


Visibility: 10 mi

Pressure: 29.98 "Hg

Humidity: 65%

Dew point: -13 °F

Location of YakutskLocation

Historic Weather in Yakutsk — Graph

°F

Yakutsk temperature yesterday

Maximum temperature yesterday: 12 °F (at 2:00 PM)
Minimum temperature yesterday: -6 °F (at 3:30 AM)
Average temperature yesterday: 3 °F

Past Weeks' High & Low Weather Summary

 TemperatureHumidityPressure
High43 °F (Mar 25, 2:00 PM)100% (Mar 15, 9:00 AM)30.24 "Hg (Mar 15, 9:00 AM)
Low-13 °F (Mar 23, 5:30 AM)37% (Mar 28, 4:30 PM)29.00 "Hg (Mar 26, 4:30 AM)
Average14 °F70%29.77 "Hg
* Reported Midnight between Mar 13 and Mar 14 — Midnight between Mar 28 and Mar 29, Yakutsk, Weather by CustomWeather, © 2015

Note: Actual official high and low records may vary slightly from our data, if they occured in-between our weather recording intervals... More about our weather records

Advertising

Yakutsk weather history for previous 24 hours

 ConditionsComfort  
Time TempWeatherWind HumidityBarometerVisibility
12:00 AM
Sun, Mar 29
-4 °FClear.3 mph65%29.98 "Hg10 mi
11:30 PM
Sat, Mar 28
-2 °FClear.6 mph65%29.98 "Hg10 mi
11:00 PM-2 °FClear.6 mph65%29.98 "Hg10 mi
10:30 PM-2 °FClear.6 mph65%29.98 "Hg10 mi
10:00 PM0 °FClear.3 mph60%29.98 "Hg10 mi
9:30 PM1 °FClear.3 mph60%29.98 "Hg10 mi
9:00 PM3 °FClear.3 mph60%29.98 "Hg10 mi
8:30 PM5 °FClear.1 mph55%29.98 "Hg10 mi
8:00 PM5 °FClear.1 mph51%29.98 "Hg10 mi
7:30 PM5 °FClear.3 mph55%29.98 "Hg10 mi
7:00 PM9 °FClear.3 mph47%29.98 "Hg10 mi
6:30 PM10 °FSunny.6 mph44%29.98 "Hg10 mi
6:00 PM10 °FSunny.6 mph44%29.98 "Hg10 mi
5:30 PM12 °FSunny.6 mph37%29.98 "Hg10 mi
5:00 PM10 °FSunny.6 mph40%29.98 "Hg10 mi
4:30 PM12 °FSunny.6 mph37%29.98 "Hg10 mi
4:00 PM12 °FSunny.6 mph40%29.98 "Hg10 mi
3:30 PM12 °FPassing clouds.3 mph40%29.95 "HgN/A
3:00 PM12 °FSunny.6 mph40%29.95 "Hg10 mi
2:30 PM12 °FPassing clouds.6 mph40%29.95 "HgN/A
2:00 PM12 °FSunny.6 mph40%29.98 "Hg10 mi
1:30 PM10 °FSunny.8 mph44%29.98 "Hg10 mi
12:30 PM10 °FSunny.6 mph44%29.98 "Hg10 mi
12:00 PM9 °FSunny.8 mph47%29.98 "Hg10 mi
11:30 AM7 °FSunny.6 mph47%29.98 "Hg10 mi
11:00 AM7 °FSunny.6 mph47%29.98 "Hg10 mi
10:30 AM5 °FSunny.6 mph46%29.98 "Hg10 mi
10:00 AM5 °FSunny.6 mph46%29.98 "Hg10 mi
9:30 AM3 °FSunny.3 mph50%29.98 "Hg10 mi
9:00 AM1 °FSunny.3 mph55%29.98 "Hg10 mi
8:30 AM0 °FSunny.3 mph54%29.98 "Hg10 mi
8:00 AM-2 °FSunny.3 mph59%29.98 "Hg10 mi
7:30 AM-2 °FSunny.No wind59%29.98 "Hg10 mi
7:00 AM-4 °FSunny.No wind65%29.98 "Hg10 mi
6:30 AM-4 °FSunny.3 mph65%29.98 "Hg10 mi
6:00 AM-6 °FSunny.1 mph64%29.98 "Hg10 mi
5:30 AM-4 °FClear.3 mph65%29.98 "Hg10 mi
5:00 AM-6 °FClear.1 mph70%29.98 "Hg10 mi
4:30 AM-6 °FClear.1 mph64%30.01 "Hg10 mi
4:00 AM-4 °FClear.3 mph65%30.01 "Hg10 mi
3:30 AM-6 °FClear.No wind70%30.01 "Hg10 mi
3:00 AM-4 °FClear.No wind65%30.01 "Hg10 mi
2:30 AM-2 °FClear.1 mph59%30.01 "Hg10 mi
2:00 AM-2 °FClear.No wind65%30.01 "Hg10 mi
1:30 AM-2 °FClear.3 mph65%30.01 "Hg10 mi
1:00 AM0 °FClear.3 mph60%30.01 "Hg10 mi
Weather by CustomWeather, © 2015

See weather overviewHow to use our weather pages